TIME,DELAY(SENSOR),PRES,T(CTD),SAL,OXYGEN,RAWTEMP,T(OPTODE),TCPHASE,FLUOR,BETA(BETA700),BETA(BETA412),BETA(BETA440),CDOM,C(CSC),ED(ED411.90),ED(ED443.80),ED(ED489.40),ED(ED554.70),LU(LU412.20),LU(LU443.80),LU(LU489.40),LU(LU555.00),COMP,TILTX,TILTX(TILTY),CHECK
1363363956,5802,493.8800048828125000,15.0136003494262700,35.9889984130859400,177.2740936279297000,254.0158996582031200,15.0207595825195310,35.4480094909668000,72,444,95,79,72,11475,2146956772,2147516004,2147277476,2147475373,2147083958,2146948800,2147672804,2147126966,1470,-1,9,54456
1363364080,5804,483.3399963378906000,15.2711000442504880,36.0358009338378900,182.4044952392578000,245.8184051513672000,15.2677698135375980,34.9808006286621100,72,457,95,79,71,11476,2146959899,2147514468,2147274413,2147473088,2147084260,2146950866,2147668699,2147122752,1721,-1,8,39813
1363364212,5806,472.6300048828125000,15.6472997665405270,36.1020011901855500,187.1564941406250000,233.4172973632812500,15.6414098739624020,34.4883995056152340,72,460,96,78,71,11477,2146957220,2147518107,2147274194,2147470363,2147084169,2146954953,2147667803,2147123053,2492,-1,9,48933
1363364347,5807,462.0400085449219000,15.9399003982543950,36.1558990478515600,191.7109985351562500,224.0117034912109400,15.9247903823852540,34.0633316040039060,72,468,95,80,70,11475,2146959387,2147518262,2147273206,2147467163,2147083958,2146948388,2147666660,2147124160,2731,-1,8,39882
1363364501,5804,450.7399902343750000,16.0785999298095700,36.1799011230468750,193.2413024902343800,218.2292022705078000,16.0990104675292970,33.8850898742675800,71,468,95,78,71,11478,2146958546,2147515382,2147275520,2147468105,2147082221,2146952301,2147664996,2147122304,3196,-1,9,64618
1363364655,5806,439.0100097656250000,16.3896007537841800,36.2308006286621100,193.2357025146484400,208.5514068603515600,16.3906192779541000,33.7466316223144500,74,494,95,80,70,11471,2146958838,2147517833,2147267913,2147465472,2147086893,2146956306,2147665316,2147120539,3574,-2,8,58358
1363364769,5805,428.3299865722656000,16.5282001495361330,36.2587013244628900,197.9586944580078000,204.9385070800781200,16.4995002746582030,33.4081993103027340,71,447,96,79,70,11475,2146953261,2147516928,2147269732,2147463963,2147082569,2146948873,2147667346,2147119762,2949,-2,8,11007
1363364879,5804,417.5299987792969000,16.7840003967285160,36.3199005126953100,202.8529968261718800,195.5691070556640600,16.7818908691406250,32.9869995117187500,71,442,93,78,69,11478,2146958765,2147516745,2147271305,2147464722,2147083446,2146952329,2147658139,2147121088,2474,-1,8,31435
1363365002,5803,405.6000061035156000,16.9860000610351560,36.3512992858886700,209.6629028320312500,188.5279998779297000,16.9941596984863280,32.5010910034179700,71,439,96,77,68,11476,2146958372,2147513261,2147268086,2147464649,2147083346,2146956544,2147656228,2147119734,2523,-2,8,17348
1363365112,5803,395.1099853515625000,17.0615997314453120,36.3652000427246100,210.8011016845703000,186.4900970458984400,17.0556106567382800,32.4097404479980500,70,429,96,79,69,11478,2146957284,2147515894,2147268726,2147461348,2147083410,2146955520,2147659629,2147121033,1665,-1,8,22986
1363365222,5805,384.2300109863281000,17.2047004699707030,36.3900985717773440,211.7227020263672000,181.8771972656250000,17.1947193145751950,32.2946205139160160,71,444,95,79,68,11476,2146958838,2147517257,2147265755,2147463067,2147087177,2146954166,2147655926,2147124306,992,-1,8,34310
1363365334,5806,372.2399902343750000,17.2887001037597660,36.4067993164062500,213.4786071777343800,178.7178039550781200,17.2900104522705080,32.1548881530761700,71,453,95,78,69,11479,2146958235,2147515510,2147268224,2147456896,2147081490,2146954368,2147656438,2147123181,1099,-1,9,30230
1363365433,5808,361.2099914550781000,17.4589996337890620,36.4393005371093750,216.6723022460937500,173.3977966308593800,17.4504909515380860,31.9095497131347660,71,435,95,79,68,11478,2146955282,2147516370,2147266450,2147457270,2147085732,2146955428,2147659712,2147126299,946,-1,8,49396
1363365532,5805,349.9800109863281000,17.5634002685546880,36.4586982727050800,217.5984039306640600,169.5346984863281200,17.5670509338378900,31.8070507049560550,71,422,93,79,68,11477,2146957805,2147516781,2147267428,2147461458,2147080576,2146956608,2147653769,2147125796,374,-2,8,43458
1363365650,5806,337.4299926757812500,17.6413993835449220,36.4729995727539060,219.5263977050781200,167.2667999267578000,17.6354904174804700,31.6742897033691400,71,433,95,79,68,11473,2146957092,2147511296,2147264914,2147459968,2147084315,2146958226,2147655606,2147121453,3575,-1,9,45457
1363365771,5807,326.1600036621094000,17.6597003936767580,36.4761009216308600,220.1750946044922000,166.6656036376953000,17.6536293029785160,31.6321201324462900,71,446,95,79,69,11474,2146958290,2147514148,2147265892,2147455186,2147081673,2146960941,2147656457,2147127277,3501,-1,8,30407
1363365895,5806,314.9800109863281000,17.7453002929687500,36.4929008483886700,221.3786010742187500,163.8233947753906200,17.7394104003906250,31.5307407379150400,72,443,94,78,68,11479,2146957577,2147514038,2147268050,2147455680,2147084416,2146957668,2147656731,2147128950,264,-1,8,45615
1363366016,5807,304.7200012207031000,17.8001003265380860,36.5013999938964840,222.1342010498047000,161.9638977050781200,17.7955493927001950,31.4661693572998050,72,454,95,79,68,11476,2146958052,2147513115,2147267218,2147457682,2147080914,2146954486,2147654317,2147124708,2804,-1,9,46667
1363366159,5807,293.5700073242187500,17.8967990875244140,36.5171012878418000,222.6508026123047000,158.7301025390625000,17.8931808471679700,31.3957901000976560,72,452,94,79,68,11476,2146958473,2147513408,2147270317,2147453595,2147083300,2146965293,2147667456,2147125284,2239,-2,9,32190
1363366315,5807,283.3200073242187500,18.0354003906250000,36.5363998413085940,222.7080993652343800,153.4454040527343800,18.0527706146240230,31.3213901519775400,72,456,97,80,66,11472,2146957440,2147513344,2147268726,2147453595,2147085668,2146961462,2147662107,2147129536,1817,-1,9,1773
1363366502,5806,272.1900024414062500,18.1513996124267580,36.5573997497558600,224.0854034423828000,150.1089019775390600,18.1535491943359380,31.2055702209472660,72,482,97,80,67,11471,2146959094,2147517558,2147268928,2147453686,2147084288,2146964425,2147663588,2147128978,1850,-2,9,62874
1363366655,5805,260.3399963378906000,18.2196998596191400,36.5716018676757800,226.8993988037109400,148.1130981445312500,18.2138500213623050,31.0366592407226560,71,456,95,81,67,11477,2146956489,2147511460,2147266358,2147453266,2147078546,2146968448,2147667885,2147130624,1413,-2,8,20993
1363366776,5805,248.6600036621093800,18.3194007873535160,36.5724983215332000,222.2066040039062500,144.7350006103515600,18.3159198760986330,31.2294692993164060,71,437,96,80,67,11471,2146958848,2147512960,2147267355,2147453074,2147083136,2146970349,2147677888,2147128128,1266,-1,8,9384
1363366878,5805,238.4100036621093800,18.4617004394531250,36.5927009582519500,220.9436035156250000,140.0924072265625000,18.4562492370605470,31.2318992614746100,72,447,96,79,68,11475,2146955730,2147516480,2147266413,2147454720,2147079058,2146976786,2147690075,2147127094,1200,-1,9,9129
1363366988,5804,226.9100036621093800,18.5597000122070300,36.6002006530761700,220.0596923828125000,136.9523925781250000,18.5511894226074220,31.2354507446289060,72,443,98,80,67,11474,2146957083,2147516507,2147266358,2147452041,2147077677,2146984822,2147703451,2147129819,1235,-1,8,110
1363367098,5806,215.7899932861328000,18.6088008880615230,36.6035995483398440,217.2980041503906200,134.9434967041015600,18.6119403839111330,31.3526096343994140,74,455,95,80,68,11472,2146958034,2147513682,2147268553,2147451501,2147069805,2146988635,2147723136,2147128219,899,-2,8,326
1363367228,5809,204.1000061035156200,18.7541007995605470,36.6246986389160160,218.8999938964843800,130.3224029541015600,18.7517204284667970,31.2065391540527340,73,458,96,80,68,11473,2146958345,2147514834,2147267309,2147451657,2147077120,2147002084,2147747218,2147131501,3567,-1,9,145
1363367316,5806,197.9799957275390600,18.7642993927001950,36.6124000549316400,214.8083038330078000,130.0312957763672000,18.7605304718017580,31.4180908203125000,72,464,95,80,69,11469,2146960219,2147511652,2147269458,2147450587,2147078134,2147005357,2147769252,2147132882,115,-2,9,29099
1363367371,5804,194.2899932861328000,18.8027992248535160,36.6180992126464840,213.1322937011718800,128.8760986328125000,18.7954807281494140,31.4923992156982420,73,459,95,80,67,11468,2146957970,2147514221,2147267940,2147447707,2147082642,2146995812,2147744557,2147131812,3342,-2,8,14086
1363367437,5805,189.9700012207031200,18.7996997833251950,36.6035003662109400,211.2597045898437500,128.9550933837890600,18.7930908203125000,31.5944995880126950,73,459,95,80,69,11470,2146955584,2147514084,2147266459,2147449590,2147083309,2146994057,2147726226,2147130130,2944,-2,9,13539
1363367515,5806,185.6600036621093800,18.9160995483398440,36.6142997741699200,206.8981018066406200,125.2508010864257800,18.9051895141601560,31.7844009399414060,73,457,95,80,69,11468,2146954797,2147515328,2147265380,2147448310,2147078043,2146988187,2147707849,2147130441,2718,-2,9,8647
1363367614,5802,181.7700042724609400,18.9671001434326170,36.6194992065429700,209.6849975585937500,123.0404968261718800,18.9720993041992200,31.6005191802978500,72,456,95,79,68,11467,2146953197,2147515812,2147269485,2147450587,2147084836,2147016237,2147788461,2147134985,2959,-2,9,16095
1363367713,5808,178.0299987792968800,19.0545997619628900,36.6189002990722660,214.9835052490234400,120.7129974365234400,19.0425701141357420,31.2835502624511720,73,466,96,79,68,11467,2146951497,2147514587,2147270637,2147449481,2147083026,2147042514,2147838500,2147136009,3181,-2,9,53161
1363367837,5805,173.9799957275390600,19.1224994659423830,36.6176986694335940,217.8585968017578000,118.4035034179687500,19.1125106811523440,31.1009502410888670,74,466,96,79,68,11468,2146954276,2147519232,2147272237,2147451419,2147090294,2147054354,2147878912,2147141138,2395,-2,9,28859
1363367958,5806,170.1000061035156200,19.1476001739501950,36.6218986511230500,219.3016967773437500,117.5558013916015600,19.1381797790527340,31.0145797729492200,73,464,95,79,67,11465,2146957056,2147515136,2147271506,2147447158,2147086802,2147071058,2147903414,2147141878,1902,-1,9,5431
1363368079,5806,166.1600036621093800,19.2119998931884770,36.6174011230468750,220.4976959228515600,115.3199005126953100,19.2059097290039060,30.9229393005371100,73,471,97,80,68,11465,2146954395,2147517540,2147272411,2147451163,2147091236,2147078491,2147934747,2147144777,1992,-2,9,29987
1363368198,5808,161.4199981689453000,19.2520008087158200,36.6114997863769500,223.2657012939453000,114.1116027832031200,19.2425193786621100,30.7654991149902340,74,469,95,80,68,11461,2146956909,2147515666,2147274642,2147447387,2147096640,2147104576,2147984420,2147147876,1702,-2,9,53841
1363368275,5809,157.7700042724609400,19.3570995330810550,36.6235008239746100,223.8432006835937500,110.7051010131836000,19.3457508087158200,30.6912803649902340,73,461,96,80,67,11460,2146958336,2147518061,2147275072,2147447241,2147099163,2147126592,2148024749,2147147318,1737,-1,9,20200
1363368374,5805,153.5700073242187500,19.5018997192382800,36.6253013610839840,224.5971984863281200,106.0280990600586000,19.4875297546386720,30.5916099548339840,73,467,97,80,67,11460,2146958171,2147517522,2147280000,2147449837,2147106066,2147150500,2148071378,2147150985,2290,-2,9,15420
1363368487,5803,150.0500030517578000,19.5515995025634770,36.6211013793945300,227.9497070312500000,104.1992034912109400,19.5429992675781250,30.4006099700927730,73,463,95,81,66,11456,2146957604,2147519872,2147283145,2147447387,2147109184,2147168210,2148113993,2147154249,2294,-2,9,50140
1363368652,5806,146.2799987792968800,19.6002006530761720,36.6138992309570300,231.3217926025390600,103.0087966918945300,19.5790996551513670,30.2199707031250000,72,454,96,80,66,11451,2146955465,2147518052,2147280685,2147445376,2147111506,2147196397,2148155446,2147156461,2383,-1,9,4283
1363368820,5804,141.8999938964843800,19.7490997314453120,36.6161003112793000,236.7415924072265600,97.5308837890625000,19.7453002929687500,29.8897094726562500,74,469,98,82,64,11443,2146960310,2147518153,2147284260,2147445083,2147128685,2147243136,2148246738,2147160009,1944,-2,9,4421
1363368919,5804,137.5500030517578000,19.8167991638183600,36.6142005920410160,240.7162017822265600,95.4045104980468800,19.8098506927490230,29.6771392822265620,75,473,98,82,64,11445,2146961380,2147521353,2147287323,2147444352,2147134793,2147302290,2148346230,2147168237,1681,-2,9,12893
1363369007,5805,133.2100067138672000,19.8750000000000000,36.6114006042480500,243.5847930908203000,93.5624465942382800,19.8657703399658200,29.5221595764160160,75,464,98,81,64,11438,2146957778,2147521298,2147294363,2147445184,2147159040,2147366400,2148464228,2147174208,1445,-1,9,8116
1363369075,5808,129.4700012207031200,19.9027004241943360,36.6105003356933600,246.5641021728515600,92.6010131835937500,19.8949699401855470,29.3754596710205080,74,472,97,81,65,11436,2146958125,2147526436,2147294774,2147445504,2147161014,2147331931,2148386258,2147168347,1851,-2,9,1482
1363369152,5805,125.0500030517578100,19.9190006256103500,36.6110992431640600,248.6428070068359400,92.0002136230468800,19.9132099151611330,29.2753505706787100,76,476,98,83,64,11428,2146962441,2147531474,2147300489,2147446390,2147198509,2147504246,2148709284,2147186605,1925,-2,9,63161
1363369218,5807,121.2600021362304700,19.9295997619628900,36.6102981567382800,249.9214019775390600,91.6274566650390600,19.9245300292968750,29.2138690948486330,75,472,98,83,64,11431,2146963675,2147530788,2147306706,2147441892,2147222902,2147586368,2148855862,2147197769,1781,-2,9,52756
1363369284,5808,117.4800033569336000,19.9498004913330080,36.6110000610351560,250.8771057128906200,90.9833908081054700,19.9440898895263670,29.1636695861816400,76,481,98,82,63,11419,2146962267,2147537490,2147312941,2147444672,2147250532,2147677906,2149012644,2147207414,1783,-1,9,30014
1363369364,5809,112.9800033569336000,19.9554004669189450,36.6108016967773440,251.9365997314453000,90.6315002441406200,19.9547805786132800,29.1129093170166000,76,484,99,83,63,11420,2146964653,2147540708,2147320228,2147443712,2147294061,2147802962,2149226624,2147221357,1785,-2,8,65341
1363369430,5807,109.4300003051757800,19.9951000213623050,36.6114006042480500,253.2201995849609400,89.5062866210937500,19.9889602661132800,29.0429401397705080,75,477,99,82,63,11413,2146963428,2147542555,2147326125,2147444790,2147338852,2147926884,2149432960,2147234688,1722,-1,8,22854
1363369507,5806,105.5699996948242200,20.0326004028320300,36.6139984130859400,254.8289947509765600,88.3043975830078100,20.0254707336425780,28.9580192565917970,76,479,99,84,63,11425,2146969737,2147551652,2147336758,2147443136,2147397019,2148089069,2149699163,2147256173,1879,-2,9,19016
1363369595,5804,101.5800018310546900,20.0601005554199220,36.6174011230468750,256.0553894042969000,87.3526763916015600,20.0543899536132800,28.8933391571044920,77,473,99,84,64,11407,2146968786,2147556736,2147347940,2147445677,2147464740,2148256594,2150000374,2147276406,1581,-1,9,9062
1363369664,5804,98.6800003051757800,20.0641002655029300,36.6175003051757800,256.3739929199219000,87.1729965209961000,20.0598506927490230,28.8775691986084000,77,478,100,84,62,11407,2146973595,2147560237,2147357933,2147447606,2147522724,2148407360,2150239149,2147298587,1348,-2,9,43385
1363369719,5804,96.4499969482421900,20.0680999755859380,36.6171989440918000,256.1913146972656000,86.9841766357421900,20.0655803680419920,28.8827400207519530,77,482,100,84,63,11406,2146974454,2147562532,2147366144,2147448448,2147576036,2148525037,2150447606,2147315483,1235,-2,9,50492
1363369774,5805,94.2900009155273400,20.0760002136230470,36.6180000305175800,256.1686096191406000,86.7294464111328100,20.0733203887939450,28.8806190490722660,78,477,101,85,63,11398,2146977554,2147568365,2147373193,2147444589,2147626294,2148630829,2150623981,2147331931,1218,-1,9,43944
1363369829,5806,92.1699981689453100,20.0848999023437500,36.6162986755371100,256.0546875000000000,86.5263671875000000,20.0794906616210940,28.8829708099365230,78,469,103,85,62,11391,2146977462,2147572580,2147383387,2147446948,2147690669,2148783469,2150866194,2147352658,1240,-2,9,3943
1363369884,5804,90.1699981689453100,20.0932998657226560,36.6146011352539060,255.7487945556640600,86.2181472778320300,20.0888595581054700,28.8921909332275400,78,483,101,84,63,11398,2146977380,2147572214,2147387382,2147449106,2147755501,2148916333,2151096374,2147375149,1201,-2,9,8806
1363369939,5807,88.2500000000000000,20.1005992889404300,36.6124992370605500,255.2411041259765600,85.9726715087890600,20.0963191986084000,28.9106998443603500,78,476,99,83,62,11397,2146983268,2147580077,2147399186,2147448073,2147827867,2149067520,2151340964,2147397293,1182,-2,9,55876
1363370017,5804,85.0800018310546900,20.1294994354248050,36.6129989624023440,254.9833068847656200,85.1161727905273400,20.1223506927490230,28.9109401702880860,78,483,101,84,65,11394,2146988955,2147590390,2147419739,2147451218,2147970733,2149360512,2151810770,2147446683,1132,-2,9,27249
1363370072,5804,82.2099990844726600,20.1508998870849600,36.6174011230468750,255.3896942138672000,84.3238830566406200,20.1464290618896500,28.8832702636718750,77,506,102,86,63,11383,2146994578,2147599296,2147439936,2147450331,2148120146,2149646262,2152267894,2147497819,1138,-2,9,56642
1363370127,5807,79.3099975585937500,20.1772003173828120,36.6211013793945300,255.4640045166015600,83.3317413330078100,20.1765899658203120,28.8675193786621100,78,496,104,88,63,11376,2147005330,2147608438,2147464274,2147458194,2148302537,2149981211,2152810770,2147566061,947,-1,9,28860
1363370182,5806,76.3399963378906200,20.2126998901367200,36.6249008178710940,255.9877014160156200,82.2349700927734400,20.2099399566650400,28.8311996459960940,80,492,105,88,62,11347,2147010139,2147622034,2147493248,2147459282,2148502336,2150349769,2153402468,2147642194,829,-1,9,3890
1363370237,5806,73.4800033569336000,20.2259998321533200,36.6144981384277340,256.8064880371094000,81.6824569702148400,20.2267303466796880,28.7893505096435550,81,553,107,91,62,11333,2147016768,2147638592,2147524617,2147463030,2148747190,2150766948,2154100068,2147735936,733,-2,8,61992
1363370292,5810,70.7399978637695300,20.2777996063232420,36.6115989685058600,257.8216857910156000,80.2702789306640600,20.2696800231933600,28.7284393310546880,83,505,107,89,63,11283,2147030710,2147656530,2147555483,2147470976,2149033334,2151254208,2154874688,2147850779,12,-1,9,42051
1363370349,5806,67.8099975585937500,20.2817001342773440,36.6128997802734400,258.7781066894531000,80.0230331420898400,20.2771892547607420,28.6849403381347660,83,488,109,93,63,11283,2147047369,2147680987,2147608594,2147477888,2149449828,2151938880,2155965787,2148030336,163,-1,9,8059
1363370404,5805,64.9400024414062500,20.2816009521484380,36.6128997802734400,259.1928100585937500,79.9452362060546900,20.2795600891113280,28.6665992736816400,84,515,110,93,62,11280,2147068809,2147708251,2147661312,2147486464,2149922733,2152690898,2157161270,2148234358,287,-1,9,45827
1363370459,5805,62.0999984741210940,20.2826995849609380,36.6111984252929700,259.4880981445312500,79.9135665893554700,20.2805194854736330,28.6537494659423830,84,504,109,90,64,11266,2147090569,2147744301,2147730916,2147499090,2150530724,2153643885,2158580288,2148490432,363,-2,8,35304
1363370514,5806,59.2799987792968750,20.2856998443603500,36.6110000610351560,259.8400878906250000,79.8271331787109400,20.2831497192382800,28.6379508972167970,85,513,109,91,61,11270,2147118454,2147779254,2147806336,2147514002,2151195730,2154665782,2160091456,2148781659,408,-1,9,4373
1363370569,5806,56.4199981689453100,20.2870006561279300,36.6104011535644500,260.1328125000000000,79.7652664184570300,20.2850303649902340,28.6247901916503900,86,514,109,91,64,11257,2147150784,2147827337,2147877293,2147529600,2152029942,2155904969,2161821138,2149146066,203,-2,9,580
1363370711,5805,50.6399993896484400,20.2875995635986330,36.6105003356933600,260.8532104492187500,79.7302627563476600,20.2861003875732420,28.5943908691406250,87,506,110,91,62,11220,2147263067,2147973266,2148110061,2147569618,2154757467,2159918034,2167348022,2150366299,3494,-2,9,36988
1363370747,5806,49.0200004577636700,20.2877006530761720,36.6100006103515600,261.0202026367187500,79.7127532958984400,20.2866306304931640,28.5872306823730470,86,512,111,91,64,11215,2147294774,2148016246,2148163062,2147579373,2155570843,2161031588,2168790162,2150716269,3375,-2,9,23059
1363370780,5804,47.5000000000000000,20.2880001068115230,36.6097984313964840,260.9849853515625000,79.6939620971679700,20.2872009277343750,28.5883407592773440,87,504,109,92,63,11219,2147327917,2148056786,2148223332,2147588205,2156362038,2162128146,2170244260,2151060123,3305,-1,9,37757
1363370825,5805,45.3899993896484400,20.2877006530761720,36.6097984313964840,261.3966064453125000,79.6710510253906200,20.2879009246826170,28.5707893371582030,85,505,111,92,63,11210,2147392228,2148141275,2148352795,2147625243,2157951853,2164287817,2172902573,2151783771,3389,-2,9,28444
1363370858,5804,43.7999992370605500,20.2875003814697270,36.6099014282226560,261.4165954589844000,79.6570816040039000,20.2883205413818360,28.5699405670166000,87,525,111,93,61,11216,2147448640,2148205851,2148455250,2147647021,2159323419,2166188132,2175310144,2152404763,3424,-2,9,48500
1363370903,5803,41.6599998474121100,20.2873992919921880,36.6097984313964840,261.8042907714844000,79.6372070312500000,20.2889308929443360,28.5534400939941400,87,504,110,94,62,11211,2147531766,2148306221,2148599049,2147687899,2161439085,2168976896,2178671780,2153356946,3422,-2,9,25994
1363370948,5806,39.4799995422363300,20.2919006347656250,36.6078987121582000,261.8548889160156000,79.5158462524414000,20.2926197052001950,28.5500202178955080,89,586,110,93,61,11196,2147630290,2148421842,2148766893,2147731931,2163822875,2172038902,2182314934,2154485001,3354,-2,9,2593
1363370993,5805,37.2599983215332000,20.2924003601074220,36.6091003417968750,262.1506042480469000,79.4217376708984400,20.2954807281494140,28.5365104675292970,88,528,111,91,63,11164,2147751634,2148558573,2148923172,2147756461,2166828150,2176026642,2186934080,2155898139,3157,-1,9,64295
1363371026,5804,35.6100006103515600,20.2961997985839840,36.6076011657714840,262.0993957519531000,79.3071594238281200,20.2989692687988280,28.5372009277343750,88,547,110,91,63,11184,2147841627,2148653549,2149036406,2147776411,2169210395,2179026742,2190307840,2157006016,3039,-2,9,37875
1363371061,5803,33.8499984741210940,20.2996997833251950,36.6069984436035160,262.4840087890625000,79.1926879882812500,20.3024501800537100,28.5198497772216800,89,536,111,92,65,11181,2147961508,2148793755,2149213211,2147817024,2172362688,2183122331,2195094528,2158522450,2935,-2,9,8003
1363371106,5806,31.5599994659423830,20.3015995025634770,36.6076011657714840,262.5490112304687500,79.0770263671875000,20.3059692382812500,28.5156593322753900,87,508,111,91,60,11179,2148131812,2148987501,2149452434,2147863414,2176931830,2188909814,2201404699,2160794249,2702,-2,8,52615
1363371151,5802,29.2399997711181640,20.3038005828857420,36.6077995300293000,262.7290039062500000,79.0062179565429700,20.3081207275390620,28.5072002410888670,88,511,111,92,63,11172,2148338349,2149198427,2149707209,2147931885,2182165430,2195041801,2208046921,2163368155,2473,-1,9,40113
1363371184,5807,27.5300006866455080,20.3078002929687500,36.6080017089843750,262.8945922851562500,78.8969497680664000,20.3114395141601560,28.4990501403808600,87,515,112,95,61,11182,2148508489,2149385371,2149930486,2147995556,2186907510,2200644132,2214007378,2165887835,2344,0,9,52847
1363371217,5804,25.8099994659423830,20.3141002655029300,36.6072998046875000,262.7408142089844000,78.3271331787109400,20.3287792205810550,28.4982700347900400,88,552,110,95,61,11201,2148731456,2149627401,2150209938,2148088109,2192617362,2207676196,2221188224,2168843044,2247,-1,9,3940
